Weather History for Farmington, NM

Change the Weather History Date:

Wednesday, March 13, 2013

  Actual Average Record
Temperature  
Mean Temperature 46 °F -  
Max Temperature 66 °F 56 °F 73 °F (2007)
Min Temperature 26 °F 28 °F 15 °F (1993)
Degree Days  
Heating Degree Days 19    
Moisture  
Dew Point 24 °F    
Average Humidity 42    
Maximum Humidity 81    
Minimum Humidity 10    
Precipitation  
Precipitation 0.00 in - - ()
Sea Level Pressure  
Sea Level Pressure 30.29 in    
Wind  
Wind Speed 6 mph (WNW)    
Max Wind Speed 15 mph    
Max Gust Speed 21 mph    
Visibility 10 miles    
Events      
Averages and records for this station are not official NWS values.
T = Trace of Precipitation, MM = Missing Value Source: NWS Daily Summary

Daily Weather History Graph

Daily Weather History Graph

Search for Another Location

Airport:

Trip Planner

Search our weather history database for the weather conditions in past years. The results will help you decide how hot, cold, wet, or windy it might be!

Date:

Astronomy

Mar. 13, 2013 Rise Set
Actual Time 7:26 AM MDT 7:18 PM MDT
Civil Twilight 7:00 AM MDT 7:44 PM MDT
Nautical Twilight 6:30 AM MDT 8:14 PM MDT
Astronomical Twilight 6:00 AM MDT 8:44 PM MDT
Moon 8:11 AM MDT (3/13) 9:33 PM MDT (3/13)
Length of Visible Light 12h 44m
Length of Day
11h 52m
Waxing Crescent, 4% of the Moon is Illuminated
Mar 13
Waxing Crescent
Mar 19
First Quarter
Mar 27
Full
Apr 2
Last Quarter
Apr 10
New

Hourly Weather History & Observations

Time (MDT) Temp. Windchill Dew Point Humidity Pressure Visibility Wind Dir Wind Speed Gust Speed Precip Events Conditions
12:53 AM 37.9 °F 33.5 °F 25.0 °F 60% 30.25 in 10.0 mi NNE 5.8 mph - N/A   Clear
1:53 AM 36.0 °F 32.1 °F 25.0 °F 64% 30.26 in 10.0 mi NNE 4.6 mph - N/A   Clear
2:53 AM 34.0 °F 31.0 °F 25.0 °F 70% 30.27 in 10.0 mi NE 3.5 mph - N/A   Clear
4:53 AM 32.0 °F 25.6 °F 25.0 °F 75% 30.26 in 10.0 mi East 6.9 mph - N/A   Clear
5:53 AM 32.0 °F - 24.1 °F 73% 30.30 in 10.0 mi Calm Calm - N/A   Clear
6:53 AM 27.0 °F 21.6 °F 21.9 °F 81% 30.34 in 10.0 mi ENE 4.6 mph - N/A   Clear
7:53 AM 32.0 °F 25.6 °F 26.1 °F 79% 30.35 in 10.0 mi East 6.9 mph - N/A   Clear
8:53 AM 37.0 °F 32.4 °F 27.0 °F 67% 30.37 in 10.0 mi East 5.8 mph - N/A   Clear
9:53 AM 42.1 °F 40.2 °F 28.0 °F 58% 30.36 in 10.0 mi East 3.5 mph - N/A   Clear
10:53 AM 46.9 °F - 27.0 °F 46% 30.36 in 10.0 mi South 3.5 mph - N/A   Clear
11:53 AM 53.1 °F - 27.0 °F 37% 30.34 in 10.0 mi Variable 4.6 mph - N/A   Clear
12:53 PM 59.0 °F - 26.1 °F 28% 30.31 in 10.0 mi West 9.2 mph - N/A   Clear
1:53 PM 62.1 °F - 24.1 °F 23% 30.29 in 10.0 mi WNW 9.2 mph - N/A   Clear
2:53 PM 64.0 °F - 21.0 °F 19% 30.26 in 10.0 mi WSW 13.8 mph 20.7 mph N/A   Clear
3:53 PM 66.0 °F - 23.0 °F 20% 30.23 in 10.0 mi West 15.0 mph - N/A   Clear
4:53 PM 64.9 °F - 21.0 °F 19% 30.23 in 10.0 mi WNW 11.5 mph 20.7 mph N/A   Clear
5:53 PM 64.0 °F - 23.0 °F 21% 30.23 in 10.0 mi West 15.0 mph - N/A   Clear
6:53 PM 62.1 °F - 21.9 °F 21% 30.25 in 10.0 mi WNW 13.8 mph - N/A   Clear
7:53 PM 57.0 °F - 23.0 °F 27% 30.27 in 10.0 mi WNW 10.4 mph - N/A   Clear
8:53 PM 52.0 °F - 23.0 °F 32% 30.28 in 10.0 mi West 8.1 mph - N/A   Clear
9:53 PM 48.0 °F - 23.0 °F 37% 30.29 in 10.0 mi West 4.6 mph - N/A   Clear
10:53 PM 48.0 °F - 24.1 °F 39% 30.29 in 10.0 mi WSW 8.1 mph - N/A   Clear
11:53 PM 46.0 °F 43.9 °F 23.0 °F 40% 30.27 in 10.0 mi WSW 4.6 mph - N/A   Clear